Regional Weather Roundup
Issued by NWS

Home | Current Version | Previous Version | Text Only | Print | Product List | Glossary On
Versions: 1 2 3 4 5 6 7 8 9 10 11 12 13 14 15 16 17 18 19 20 21 22 23 24 25 26 27 28 29 30 31 32 33 34 35 36 37 38 39 40 41 42 43 44 45 46 47 48 49 50
000
ASUS43 KLSX 220307
RWRMO

WEATHER SUMMARY FOR MISSOURI
NATIONAL WEATHER SERVICE SPRINGFIELD MO
1000 PM CDT THU MAY 21 2015

NOTE: "FAIR" INDICATES FEW OR NO CLOUDS BELOW 12,000 FEET WITH NO
       SIGNIFICANT WEATHER AND/OR OBSTRUCTIONS TO VISIBILITY.
       CURRENT SKY AND/OR WEATHER CONDITIONS ARE NOT AVAILABLE FOR
       CHILLICOTHE AND FARMINGTON.

MOZ001>031-035>038-043-044-053-054-220400-
...NORTHERN AND WESTERN MISSOURI...

CITY           SKY/WX    TMP DP  RH WIND       PRES   REMARKS
KANSAS CTY INT CLEAR     59  44  57 SW6       30.20R
KANSAS C DTWN  CLEAR     60  45  57 CALM      30.19S
LEE`S SUMMIT   FAIR      57  42  57 SW3       30.20S
ST JOSEPH      CLEAR     56  50  80 SW5       30.19R
CHILLICOTHE      N/A     60  47  61 SW3       30.18R
KIRKSVILLE     CLEAR     58  47  66 SW6       30.15R

$$
MOZ066>068-077>081-088>096-101>105-220400-
...SOUTHWEST MISSOURI...

CITY           SKY/WX    TMP DP  RH WIND       PRES   REMARKS
SPRINGFIELD    PTCLDY    50  44  80 CALM      30.21R
JOPLIN         CLEAR     52  48  86 CALM      30.22R

$$
MOZ032>034-039>042-045>050-055>058-069>072-220400-
...CENTRAL MISSOURI...

CITY           SKY/WX    TMP DP  RH WIND       PRES   REMARKS
COLUMBIA       CLEAR     54  45  71 SW6       30.19R
JEFFERSON CITY CLEAR     54  47  77 CALM      30.19R
ROLLA          CLEAR     46  42  86 SW6       30.19S
SEDALIA        CLEAR     58  45  62 SW6       30.21R
WHITEMAN AFB   CLEAR     54  47  77 SW6       30.19S
WARRENSBURG    CLEAR     55  46  71 S3        30.20S
OSAGE BEACH    CLEAR     48  45  87 CALM      30.21S

$$
MOZ051-052-059>065-220400-
...EAST CENTRAL MISSOURI...

CITY           SKY/WX    TMP DP  RH WIND       PRES   REMARKS
ST LOUIS INTL  PTCLDY    58  43  57 SW3       30.18S
SPIRIT OF STL  CLEAR     51  47  86 CALM      30.18R
ST CHARLES     CLEAR     54  47  77 CALM      30.17R

$$
MOZ072>076-082>087-097>100-106>115-220400-
...SOUTH CENTRAL AND SOUTHEAST MISSOURI...

CITY           SKY/WX    TMP DP  RH WIND       PRES   REMARKS
CAPE GIRARDEAU CLEAR     50  47  89 CALM      30.21S
FARMINGTON     CLEAR     48  43  81 CALM      30.24S
POPLAR BLUFF   CLEAR     51  47  86 CALM      30.21R
WEST PLAINS    CLEAR     49  44  83 CALM      30.22S

$$



USA.gov is the U.S. government's official web portal to all federal, state and local government web resources and services.